Location: Baralle
(50.2109°N, 3.0572°E)
Time: 17:03:12
(UTC+00:00)

Daily predictions for brighter satellites

Satellite Brightness Start Highest point End
(mag) Time Altitude Azimuth Time Altitude Azimuth Time Altitude Azimuth
Cosmos 1802 Rocket 4.3 17:27:30 10° N 17:33:56 82° W 17:40:22 10° S
Cosmos 2285 Rocket 4.1 17:29:53 10° NNW 17:36:16 58° ENE 17:42:33 10° SE
Cosmos 2233 Rocket 4.0 17:30:33 10° N 17:36:50 71° ENE 17:43:08 10° SSE
CZ-4 R/B 4.3 17:33:45 10° SSE 17:37:41 63° ENE 17:41:37 10° N
USA 290 2.4 17:34:34 10° SSW 17:37:45 75° WNW 17:40:57 10° NNE
NOSS 0 Rocket 4.0 17:32:34 10° NNW 17:38:52 84° ENE 17:45:07 10° SSE
USA 306 4.0 17:37:44 10° W 17:40:21 25° SW 17:42:15 10° SSE
ARIANE 6 FM1 Upper Stage 4.1 17:38:48 10° NNW 17:41:52 21° NNE 17:44:55 10° ENE
Thor Agena Rocket 4.5 17:39:07 10° S 17:44:06 54° W 17:49:10 10° NNW
NOSS 3-4 (A) 3.9 17:38:13 10° NW 17:44:36 58° NE 17:52:09 10° ESE
NOSS 3-4 (C) 3.9 17:38:29 10° NW 17:44:54 57° NE 17:52:27 10° ESE
Cosmos 1725 Rocket 4.3 17:39:21 10° NNW 17:45:36 75° W 17:51:51 10° S
Cosmos 2151 Rocket 3.7 17:44:50 10° N 17:49:22 86° W 17:53:52 10° S
Meteor 1-11 4.2 17:46:35 10° S 17:52:13 84° E 17:58:00 10° NNE
Radarsat Rocket 4.0 17:49:37 10° SE 17:55:25 63° ENE 18:01:44 10° NNW
Cosmos 1607 4.0 17:49:26 10° SW 17:55:35 86° NW 18:01:50 10° NE
Cosmos 1455 Rocket 3.4 17:52:55 10° N 17:56:59 39° ENE 18:01:02 10° SE
Cosmos 44 Rocket 4.3 17:55:13 10° S 17:59:19 27° ESE 18:03:10 12° ENE
YAOGAN 1 2.4 17:55:31 10° SSE 17:59:46 73° ENE 18:04:01 10° N
Cosmos 2228 3.9 17:56:18 10° NNE 17:59:49 25° ENE 18:03:20 10° SE
Cosmos 1975 Rocket 4.2 17:56:48 10° SE 18:00:03 21° E 18:03:17 10° NE
COSMO-SKYMED 1 2.8 17:56:30 10° NNE 18:00:26 42° E 18:04:20 10° S
PSLV R/B 3.6 17:56:38 10° SE 18:00:35 48° ENE 18:04:32 10° N
ATLAS 2AS CENTAUR R/B 4.0 17:54:54 10° W 18:00:58 32° NNW 18:06:58 10° NE
Cosmos 1782 4.0 17:59:06 10° NNE 18:01:37 18° ENE 18:03:12 14° E
Cosmos 2297 Rocket 2.4 17:56:39 10° S 18:02:04 49° ESE 18:07:31 10° NE
Lacrosse 5 rocket 2.0 18:00:04 10° W 18:03:21 38° NNW 18:06:24 12° NE
DNEPR-1 R/B 4.2 18:00:00 10° NNW 18:04:34 47° NE 18:09:57 10° ESE
SPOT 1/Viking Rocket 4.1 18:01:43 10° S 18:06:47 63° WSW 18:11:54 10° NNW
Cosmos 2061 Rocket 4.2 18:00:53 10° N 18:07:18 84° W 18:13:35 10° S
Aureole 3 Rocket 2.5 18:03:29 10° N 18:07:30 65° ENE 18:10:42 10° SSE
CZ-2D R/B 3.2 18:05:40 10° SSE 18:09:35 80° ENE 18:13:37 10° NNW
Meteor 2-1 Rocket 4.5 18:03:54 10° NNW 18:09:44 80° W 18:15:38 10° S
Okean 1 Rocket 3.2 18:07:58 10° NNW 18:12:22 77° W 18:16:43 10° S
SL-16 R/B 4.2 18:07:12 10° N 18:12:37 33° WNW 18:18:01 10° WSW
CZ-4C R/B 2.0 18:08:54 10° SW 18:13:14 73° NW 18:18:52 10° NE
Cosmos 1464 Rocket 4.3 18:10:39 10° N 18:16:46 46° ENE 18:22:47 10° SE
Okean 2 Rocket 3.7 18:13:17 10° NNW 18:17:37 59° W 18:21:54 10° S
Cosmos 2344 4.3 18:13:15 10° SSE 18:19:35 27° ESE 18:23:43 16° ENE
Cosmos 2221 Rocket 3.6 18:15:42 10° S 18:20:10 88° W 18:24:43 10° N
USA 267 3.4 18:15:08 12° ENE 18:21:18 73° NNW 18:27:49 10° WSW
SJ-6B 2.9 18:21:15 10° SE 18:24:28 39° ENE 18:27:42 10° N
Cosmos 1980 4.0 18:24:25 10° NNW 18:30:04 70° WSW 18:35:40 10° SSE
Cosmos 2263 Rocket 3.2 18:26:19 10° SSE 18:30:41 23° ESE 18:31:44 22° E
Cosmos 1025 Rocket 3.8 18:26:34 10° SSW 18:30:47 54° WNW 18:35:05 10° N
Cosmos 2237 Rocket 2.5 18:29:41 10° NNW 18:35:21 69° WSW 18:41:00 10° SSE
Meteor 1-31 Rocket 3.7 18:36:36 25° NE 18:36:36 25° NE 18:38:53 10° N
SKYMED 2 4.5 18:32:50 10° N 18:37:04 51° WNW 18:41:16 10° SW
Meteor 1-27 4.3 18:32:03 10° NNW 18:37:51 89° E 18:43:42 10° S
SeaSat 1 4.3 18:38:00 10° S 18:42:20 31° WSW 18:46:41 10° NW
Cosmos 1570 Rocket 3.9 18:38:05 10° SSW 18:43:21 81° ESE 18:48:38 10° NNE
Resurs 01 Rocket 1.6 18:39:24 10° SSE 18:43:47 86° WSW 18:48:13 10° NNW
SPOT 5 3.3 18:45:52 25° ESE 18:48:10 42° ENE 18:52:58 10° N
NOSS 3-3 (C) 4.1 18:44:49 10° WSW 18:50:09 64° NW 18:55:59 13° NE
DMSP B5D1-3 4.4 18:47:43 10° NNE 18:52:51 80° ESE 18:57:58 10° SSW
Tiangong 0.1 18:53:53 10° SSW 18:55:41 16° S 18:55:41 16° S
Cosmos 2227 Rocket 2.1 18:55:46 10° SSW 19:01:18 61° ESE 19:05:16 20° NE
SL-16 R/B 2.2 18:55:40 10° NNW 19:01:18 64° ENE 19:03:58 31° SE
Cosmos 773 Rocket 4.0 18:58:58 10° SSW 19:04:15 88° WNW 19:09:35 10° NNE
Cosmos 1346 Rocket 3.7 19:00:49 10° S 19:02:49 30° SSE 19:02:49 30° SSE
Cosmos 2208 Rocket 3.9 18:59:14 10° SSW 19:04:28 87° ESE 19:09:50 10° NNE
Tsikada Rocket 4.3 19:02:34 10° SSE 19:08:13 40° E 19:13:56 10° NNE
CZ-4 R/B 2.6 19:17:56 27° N 19:17:56 27° N 19:19:51 10° N
Okean O Rocket 3.9 19:20:31 12° NNE 19:20:31 12° NNE 19:20:54 10° NNE
ARIANE 6 FM1 Upper Stage 2.7 19:17:32 10° NW 19:21:05 64° N 19:21:05 64° N
CZ-4B R/B 3.4 19:26:08 47° NE 19:26:08 47° NE 19:30:47 10° N
Terra 3.2 19:30:49 26° NNE 19:30:49 26° NNE 19:33:11 10° N
Cosmos 1544 Rocket 3.5 19:25:19 10° NNW 19:29:40 84° W 19:30:02 73° SSW
Cosmos 1816 Rocket 4.5 19:24:09 10° S 19:30:18 83° W 19:36:35 10° N
CZ-4B DEB 4.0 19:29:06 52° SE 19:30:25 73° ENE 19:35:52 10° NNW
CSL-04 Debris 4.1 19:30:41 33° SSE 19:33:13 90° SW 19:38:41 10° NNW
Cosmos 2034 Rocket 4.0 19:28:29 10° NNW 19:34:41 80° W 19:40:52 10° S
Cosmos 1782 3.9 19:33:09 10° NNW 19:36:31 39° W 19:37:19 33° SW
Cosmos 2228 4.5 19:33:02 10° NNW 19:36:52 35° W 19:40:42 10° SSW
Cosmos 1975 Rocket 4.1 19:33:17 10° SSW 19:37:28 45° WNW 19:41:38 10° N
TSX-5 4.1 19:32:12 10° NNW 19:37:23 86° NW 19:37:23 86° NW
RESURS DK-1 4.2 19:34:08 10° NNW 19:35:40 20° N 19:35:40 20° N
CSL-04 Rocket 3.6 19:35:11 30° S 19:37:52 78° WSW 19:43:11 10° NNW
Cosmos 44 Rocket 3.8 19:35:29 10° SW 19:40:23 60° NW 19:41:49 43° NNE
Lacrosse 5 rocket 3.0 19:37:44 10° WNW 19:39:50 23° NNW 19:39:50 23° NNW
MOS 1 4.2 19:41:21 68° ENE 19:41:26 68° ENE 19:47:05 10° N
Cosmos 1634 Rocket 3.9 19:35:46 10° N 19:42:07 70° ENE 19:43:02 61° SE
Cosmos 2297 Rocket 3.6 19:41:05 10° WSW 19:46:16 36° NW 19:51:30 10° NNE
Cosmos 1943 3.5 19:43:36 10° NNW 19:48:32 54° NNE 19:48:32 54° NNE
ATLAS 2AS CENTAUR R/B 3.9 19:48:11 10° NW 19:53:53 27° N 19:55:21 25° NNE
BREEZE-M DEB (TANK) 3.8 19:38:29 10° W 19:55:36 67° S 19:56:30 60° SE
ERS-1 Rocket 3.8 20:02:09 43° N 20:02:09 43° N 20:05:30 10° NNW
CZ-4C R/B 3.8 19:58:13 10° WNW 20:02:30 27° NNW 20:04:22 23° NNE
BREEZE-M DEB (TANK) 4.3 19:58:07 10° SW 20:03:01 61° SE 20:04:47 54° ESE
Cosmos 972 Rocket 4.4 19:58:45 10° NNW 20:02:46 58° NNW 20:02:46 58° NNW
USA 267 3.8 20:02:29 43° NNE 20:03:56 50° N 20:10:12 10° WNW
Cosmos 2279 Rocket 4.2 19:58:19 10° N 20:03:21 57° NNE 20:03:21 57° NNE
Cosmos 2263 Rocket 2.5 20:08:24 10° SW 20:13:31 65° W 20:13:31 65° W
ADEOS 4.4 20:23:44 47° NW 20:23:44 47° NW 20:27:37 10° NNW
Cosmos 2344 3.5 20:25:33 10° SW 20:33:10 75° NW 20:33:48 70° N
SL-16 R/B 4.0 20:40:26 10° NW 20:44:59 25° WSW 20:45:53 24° WSW
Cosmos 2227 Rocket 3.8 20:40:46 10° WSW 20:45:43 31° NW 20:47:09 27° NNW
Terra 4.5 21:09:26 16° NW 21:09:26 16° NW 21:10:32 10° NNW
ATLAS 2AS CENTAUR R/B 4.4 21:39:47 10° NW 21:42:45 26° NNW 21:42:45 26° NNW
